AMAZONAS 5

Last updated on Tue Oct 15 2024 00:02:41 GMT+0000 (Coordinated Universal Time)

1 42934U 17053A 24288.18095983 -.00000284 00000+0 00000+0 0 9998 2 42934 0.0412 312.8495 0003295 288.4019 146.1399 1.00270871 25910
UTC large
Height (km)
Speed (km/s)
/
Latitude / Longitude
Inclination (degrees)
Orbital Period (minutes)
Azimuth
Elevation
Range (km)
Doppler Factor

Next 0 passes for location: London (51.5072 / 0.1276)

Sorry there are no passes over London.